This demonstration page uses our WeatherBlox Daily Observations layout. Learn more.

Left ArrowRight Arrow

Hourly Observations for December 5, 2022

Temp ( °F °C ) Dew Point ( °F °C ) Humidity (%) Winds ( mph kmh ) Pressure ( in mb ) Visibility ( mi km ) Precip ( " mm )
12:51 am 00:51 Mostly Cloudy 53 11.7 53 11.7 100 100 Calm 29.99 1016 8 13 0.00 0.00
1:09 am 01:09 Cloudy with Mist and Fog 53 11.7 53 11.7 100 100 S 3 6 30.00 1016 2 2 0.00 0.00
1:17 am 01:17 Cloudy with Fog 53 11.7 53 11.7 100 100 Calm 30.00 1016 0 0 0.00 0.00
1:42 am 01:42 Cloudy with Fog 53 11.7 52 11.1 96 96 Calm 30.00 1016 1 1 0.00 0.00
1:51 am 01:51 Cloudy with Fog 53 11.7 52 11.1 96 96 Calm 29.97 1015 1 1 0.00 0.00
2:05 am 02:05 Cloudy with Mist and Fog 53 11.7 53 11.7 100 100 Calm 30.00 1016 1 2 0.00 0.00
2:15 am 02:15 Cloudy with Mist and Fog 53 11.7 53 11.7 100 100 Calm 30.00 1016 1 1 0.00 0.00
2:22 am 02:22 Cloudy with Mist and Fog 53 11.7 53 11.7 100 100 Calm 30.00 1016 1 2 0.00 0.00
2:42 am 02:42 Cloudy with Mist and Fog 53 11.7 53 11.7 100 100 Calm 29.99 1016 3 5 0.00 0.00
2:51 am 02:51 Cloudy with Mist and Fog 53 11.7 53 11.7 100 100 Calm 29.97 1015 3 5 0.00 0.00
2:55 am 02:55 Cloudy with Mist and Fog 53 11.7 53 11.7 100 100 Calm 29.99 1016 2 3 0.00 0.00
3:01 am 03:01 Cloudy with Mist and Fog 52 11.1 52 11.1 100 100 Calm 30.00 1016 1 1 0.00 0.00
3:09 am 03:09 Cloudy with Fog 52 11.1 52 11.1 100 100 W 3 6 30.00 1016 1 1 0.00 0.00
3:20 am 03:20 Mostly Clear with Fog 52 11.1 52 11.1 100 100 W 3 6 30.00 1016 0 0 0.00 0.00
3:51 am 03:51 Mostly Clear with Fog 50 10 50 10 100 100 Calm 29.96 1015 0 0 0.00 0.00
4:51 am 04:51 Mostly Clear with Fog 50 10 50 10 100 100 SW 3 6 29.96 1014 0 0 0.00 0.00
5:25 am 05:25 Mostly Clear with Fog 51 10.6 51 10.6 100 100 Calm 30.01 1016 1 1 0.00 0.00
5:36 am 05:36 Mostly Clear with Fog 51 10.6 51 10.6 100 100 Calm 30.00 1016 0 0 0.00 0.00
5:51 am 05:51 Mostly Clear with Fog 51 10.6 51 10.6 100 100 N 3 6 29.96 1015 0 0 0.00 0.00
6:06 am 06:06 Mostly Clear with Fog 51 10.6 51 10.6 100 100 NNE 5 7 30.00 1016 1 1 0.00 0.00
6:16 am 06:16 Cloudy with Mist and Fog 51 10.6 51 10.6 100 100 N 3 6 30.00 1016 2 3 0.00 0.00
6:24 am 06:24 Cloudy 51 10.6 51 10.6 100 100 Calm 30.00 1016 10 16 0.00 0.00
6:51 am 06:51 Cloudy 51 10.6 51 10.6 100 100 Calm 29.96 1015 9 14 0.00 0.00
7:51 am 07:51 Cloudy 51 10.6 51 10.6 100 100 Calm 29.98 1015 N/A 0.00 0.00
8:51 am 08:51 Cloudy 52 11.1 52 11.1 100 100 Calm 29.98 1015 N/A 0.00 0.00
9:51 am 09:51 Cloudy 53 11.7 53 11.7 100 100 NW 3 6 30.00 1016 N/A 0.00 0.00
10:34 am 10:34 Cloudy 55 12.8 55 12.8 100 100 Calm 30.00 1016 N/A 0.00 0.00
10:51 am 10:51 Cloudy 56 13.3 55 12.8 97 97 NW 6 9 29.98 1015 N/A 0.00 0.00
11:20 am 11:20 Cloudy 55 12.8 54 12.2 96 96 Calm 29.98 1015 N/A 0.00 0.00
11:51 am 11:51 Cloudy 57 13.9 55 12.8 93 93 WSW 3 6 29.95 1014 N/A 0.00 0.00
12:28 pm 12:28 Mostly Cloudy 60 15.6 56 13.3 86 86 SW 5 7 29.92 1013 N/A 0.00 0.00
12:51 pm 12:51 Mostly Cloudy 60 15.6 55 12.8 83 83 W 5 7 29.91 1013 N/A 0.00 0.00
12:58 pm 12:58 Mostly Cloudy 60 15.6 55 12.8 83 83 WSW 6 9 29.90 1012 N/A 0.00 0.00
1:31 pm 13:31 Partly Cloudy 62 16.7 55 12.8 78 78 W 6 9 29.88 1012 N/A 0.00 0.00
1:51 pm 13:51 Mostly Cloudy 63 17.2 56 13.3 78 78 VRB 6 9 29.88 1012 10 16 0.00 0.00
2:05 pm 14:05 Partly Cloudy N/A N/A N/A W 9 15 30.06 1018 10 16 0.00 0.00
2:51 pm 14:51 Mostly Sunny 63 17.2 54 12.2 72 72 WSW 8 13 29.86 1011 10 16 0.00 0.00
3:51 pm 15:51 Sunny 63 17.2 53 11.7 70 70 W 8 13 29.85 1011 10 16 0.00 0.00
4:51 pm 16:51 Sunny 60 15.6 54 12.2 80 80 W 9 15 29.86 1011 10 16 0.00 0.00
5:51 pm 17:51 Clear 58 14.4 50 10 75 75 W 6 9 29.87 1012 10 16 0.00 0.00
6:51 pm 18:51 Clear 58 14.4 46 7.8 65 65 Calm 29.88 1012 10 16 0.00 0.00
7:51 pm 19:51 Clear 57 13.9 45 7.2 64 64 NNW 7 11 29.88 1012 10 16 0.00 0.00
8:51 pm 20:51 Clear 54 12.2 45 7.2 71 71 W 10 17 29.89 1012 10 16 0.00 0.00
9:51 pm 21:51 Clear 50 10 46 7.8 86 86 Calm 29.91 1013 10 16 0.00 0.00
10:51 pm 22:51 Clear 48 8.9 45 7.2 89 89 E 5 7 29.92 1013 10 16 0.00 0.00
11:51 pm 23:51 Clear 47 8.3 45 7.2 93 93 ENE 6 9 29.92 1013 10 16 0.00 0.00

Powered by AerisWeather